Location: Peyton Hall Observatory
(40.3466°N, 74.6516°W)
Time: 00:56:08
(UTC-04:00)

ISS - All Passes

Search period start: 30 September 2016 00:00
Search period end: 10 October 2016 00:00
Orbit: 400 x 409 km, 51.6° (Epoch: 30 September)

Date Brightness Start Highest point End Pass type
(mag) Time Alt. Az. Time Alt. Az. Time Alt. Az.
30 Sep - 00:42:35 10° NNW 00:44:52 17° NNE 00:47:09 10° ENE night (unlit)
30 Sep - 02:18:30 10° NW 02:21:47 78° NE 02:25:04 10° ESE night (unlit)
30 Sep - 03:56:51 10° WSW 03:57:49 11° SW 03:58:48 10° SW night (unlit)
30 Sep - 18:58:17 10° SSW 19:01:09 29° SE 19:04:02 10° ENE daylight
30 Sep - 20:34:37 10° W 20:37:36 32° NNW 20:40:35 10° NE visible
30 Sep - 22:13:19 10° NW 22:14:51 13° N 22:16:24 10° NNE visible
30 Sep - 23:50:38 10° NNW 23:52:26 14° NNE 23:54:14 10° NE night (unlit)
01 Oct - 01:26:26 10° NW 01:29:35 42° NNE 01:32:44 10° ESE night (unlit)
01 Oct - 03:03:19 10° W 03:05:53 21° SW 03:08:26 10° S night (unlit)
01 Oct - 18:07:10 10° S 18:09:10 15° SE 18:11:11 10° E daylight
01 Oct - 19:42:09 10° WSW 19:45:21 55° NNW 19:48:33 10° NE visible
01 Oct - 21:20:23 10° NW 21:22:23 15° NNW 21:24:23 10° NNE visible
01 Oct - 22:58:34 10° NNW 22:59:57 12° N 23:01:20 10° NNE night (unlit)
02 Oct - 00:34:26 10° NW 00:37:17 27° NNE 00:40:08 10° E night (unlit)
02 Oct - 02:10:44 10° WNW 02:13:51 41° SW 02:16:57 10° SSE night (unlit)
02 Oct - 18:49:55 10° SW 18:53:10 77° SE 18:56:24 10° NE daylight
02 Oct - 20:27:29 10° WNW 20:29:57 19° NNW 20:32:25 10° NNE visible
02 Oct - 22:06:14 10° NNW 22:07:25 12° N 22:08:37 10° NNE visible
02 Oct - 23:42:28 10° NNW 23:44:54 19° NNE 23:47:21 10° ENE night (unlit)
03 Oct - 01:18:26 10° NW 01:21:44 83° SW 01:25:00 10° SE night (unlit)
03 Oct - 17:58:00 10° SSW 18:01:02 37° SE 18:04:04 10° ENE daylight
03 Oct - 19:34:43 10° W 19:37:34 27° NNW 19:40:26 10° NE visible
03 Oct - 21:13:30 10° NNW 21:14:53 12° N 21:16:17 10° NNE visible
03 Oct - 22:50:29 10° NNW 22:52:27 15° NNE 22:54:25 10° NE night (unlit)
04 Oct - 00:26:18 10° NW 00:29:31 52° NNE 00:32:43 10° ESE night (unlit)
04 Oct - 02:03:31 10° W 02:05:43 17° SW 02:07:54 10° S night (unlit)
04 Oct - 17:06:34 10° S 17:08:59 19° SE 17:11:24 10° E daylight
04 Oct - 18:42:07 10° WSW 18:45:14 44° NNW 18:48:23 10° NE daylight
04 Oct - 20:20:33 10° NW 20:22:22 14° NNW 20:24:12 10° NNE visible
04 Oct - 21:58:26 10° NNW 21:59:56 12° N 22:01:26 10° NE visible
04 Oct - 23:34:14 10° NW 23:37:12 31° NNE 23:40:10 10° E night (unlit)
05 Oct - 01:10:43 10° WNW 01:13:40 32° SW 01:16:37 10° SSE night (unlit)
05 Oct - 17:49:44 10° SW 17:53:00 83° NNW 17:56:15 10° NE daylight
05 Oct - 19:27:35 10° WNW 19:29:52 17° NNW 19:32:10 10° NNE visible
05 Oct - 21:06:11 10° NNW 21:07:23 12° N 21:08:35 10° NNE visible
05 Oct - 22:42:13 10° NNW 22:44:49 21° NNE 22:47:25 10° ENE night (unlit)
06 Oct - 00:18:17 10° WNW 00:21:33 64° SW 00:24:47 10° SE night (unlit)
06 Oct - 16:57:40 10° SW 17:00:48 48° SE 17:03:57 10° ENE daylight
06 Oct - 18:34:42 10° W 18:37:26 24° NNW 18:40:09 10° NNE daylight
06 Oct - 20:13:32 10° NNW 20:14:48 12° N 20:16:05 10° NNE visible
06 Oct - 21:50:13 10° NNW 21:52:20 16° NNE 21:54:28 10° ENE visible
06 Oct - 23:26:04 10° NW 23:29:19 65° NE 23:32:34 10° ESE night (unlit)
07 Oct - 01:03:47 10° W 01:05:25 13° SW 01:07:04 10° SSW night (unlit)
07 Oct - 16:05:59 10° S 16:08:41 24° SE 16:11:23 10° ENE daylight
07 Oct - 17:42:00 10° W 17:45:03 37° NNW 17:48:06 10° NE daylight
07 Oct - 19:20:36 10° NW 19:22:14 13° N 19:23:53 10° NNE visible
07 Oct - 20:58:10 10° NNW 20:59:48 13° N 21:01:27 10° NE visible
07 Oct - 22:33:56 10° NW 22:37:00 36° NNE 22:40:04 10° E night (unlit)
08 Oct - 00:10:37 10° WNW 00:13:22 25° SW 00:16:08 10° SSE night (unlit)
08 Oct - 15:15:06 10° SSE 15:16:38 13° SE 15:18:10 10° E daylight
08 Oct - 16:49:30 10° WSW 16:52:43 66° NW 16:55:57 10° NE daylight
08 Oct - 18:27:34 10° WNW 18:29:41 16° NNW 18:31:49 10° NNE daylight
08 Oct - 20:05:57 10° NNW 20:07:13 12° N 20:08:29 10° NNE visible
08 Oct - 21:41:52 10° NNW 21:44:36 24° NNE 21:47:19 10° E visible
08 Oct - 23:18:03 10° WNW 23:21:14 49° SW 23:24:24 10° SE night (unlit)
09 Oct - 15:57:16 10° SW 16:00:28 63° SE 16:03:41 10° ENE daylight
09 Oct - 17:34:36 10° WNW 17:37:11 21° NNW 17:39:45 10° NNE daylight
09 Oct - 19:13:25 10° NNW 19:14:37 11° N 19:15:48 10° NNE visible
09 Oct - 20:49:49 10° NNW 20:52:07 17° NNE 20:54:24 10° ENE visible
09 Oct - 22:25:44 10° NW 22:29:01 82° NE 22:32:16 10° SE night (unlit)
